Погода в Ургуте

Узбекистан     39°24′31″N   67°14′36″E
темп.,
°C
ветер,
м/с
пор.,
м/с
влажн.,
%
обл.,
%
осадки,
мм/ч
давл.,
гПа
погр.,
м
27 февраля, сб
сб2723:00−6ссв117275 0.0 102944
02:00−5с0166100 0.0 102882
05:00−4с1165100 0.0 1028104
08:00−3сз0156100 0.0 1028116
11:000зсз1245100 0.0 1029568
14:00+3ссз233934 0.0 1027965
17:00+3св114217 0.0 1027738
20:00−1вюв11610 0.0 102822
28 февраля, вс
вс2823:00−1ююв00640 0.0 102822
02:00−1ю00620 0.0 102622
05:00−1в11570 0.0 102422
08:00+1вюв11460 0.0 102322
11:00+6ссв11300 0.0 1021335
14:00+9ссв21270 0.0 1018561
17:00+9св21360 0.0 1018397
20:00+5юв11485 0.0 101922
1 марта, пн
пн123:00+4юз114833 0.0 102022
02:00+5ююв1139100 0.0 102022
05:00+5ююв1235100 0.0 101922
08:00+6ююв1232100 0.0 102022
11:00+12с012154 0.0 1019401
14:00+16юз510180 0.0 10182043
17:00+15юз37250 0.0 10171467
20:00+10ю33360 0.0 101924
2 марта, вт
вт223:00+9ю333445 0.0 102029
02:00+9ююв2333100 0.0 102126
05:00+7ююз0134100 0.0 102022
08:00+8юв1136100 0.0 102122
11:00+13в2323100 0.0 1021359
14:00+15зсз2521100 0.0 10201834
17:00+14з2330100 0.0 10191293
20:00+10вюв1250100 0.0 102144
3 марта, ср
ср323:00+9юв1163100 0.0 102154
02:00+7сз1267100 0.0 102130
05:00+6в117090 0.0 102022
08:00+6ссз117192 0.0 102151
11:00+9с125796 0.0 1020850
14:00+11зсз3454100 0.1 10181240
17:00+8св227499 0.2 1018509
20:00+7вюв227790 0.1 101894